Regional Weather Roundup
Issued by NWS Upton, NY

Current Version | Previous Version | Text Only | Print | Product List | Glossary On
Versions: 1 2 3 4 5 6 7 8 9 10 11 12 13 14 15 16 17 18 19 20 21 22 23 24 25 26 27 28 29 30 31 32 33 34 35 36 37 38 39 40 41 42 43 44 45 46 47 48 49 50
842 ASUS41 KOKX 250709 RWROKX REGIONAL WEATHER ROUNDUP NATIONAL WEATHER SERVICE NEW YORK NY 300 AM EDT THU MAY 25 2017 NOTE: "FAIR" INDICATES FEW OR NO CLOUDS BELOW 12,000 FEET WITH NO SIGNIFICANT WEATHER AND/OR OBSTRUCTIONS TO VISIBILITY. NYZ071-072-176-178-NJZ106-104-250800- NEW YORK CITY METRO AREA CITY SKY/WX TMP DP RH WIND PRES REMARKS Central Park CLOUDY 58 52 80 VRB6G17 29.79F Wall St Helipt CLOUDY 58 53 84 NE15 29.76F Bronx Bot Gard N/A 57 50 77 E7 29.79R LaGuardia APRT CLOUDY 58 51 78 E15 29.77F Kennedy INTL CLOUDY 58 55 90 E13 29.77F Breezy Point N/A 55 N/A N/A E14G24 N/A Newark/Liberty CLOUDY 58 53 84 E9 29.75F Teterboro CLOUDY 58 52 80 E10 29.76F $$ NYZ177-179-078>081-250800- LONG ISLAND NEW YORK CITY SKY/WX TMP DP RH WIND PRES REMARKS Jones Beach N/A 55 N/A N/A E16G23 N/A Matinecock PT NOT AVBL Farmingdale CLOUDY 57 52 83 E10 29.78F MacArthur/ISP CLOUDY 57 52 83 E13G22 29.78F Shirley CLOUDY 57 56 96 VRB6 29.79F Mt Sinai Harb N/A 57 N/A N/A E10G16 N/A Westhampton CLOUDY 56 50 80 E10G21 29.80F East Hampton CLOUDY 56 50 81 E13G20 29.79F Montauk N/A 56 52 86 E7 29.82F $$ NYZ052-065-067-250800- HUDSON VALLEY CITY SKY/WX TMP DP RH WIND PRES REMARKS White Plains CLOUDY 56 51 84 E9 29.77F Larchmont Harb N/A 57 N/A N/A NE18 N/A Croton O-T Hud N/A 57 N/A N/A E1 N/A Newburgh PTCLDY 57 52 82 SE9 29.80F Montgomery CLOUDY 57 50 77 E5 29.78F Poughkeepsie CLOUDY 54 50 86 CALM 29.78F Albany CLOUDY 60 48 64 SE6 29.80F $$ NJZ001-105-106-008-010-013-015-019>022-104-250800- NEW JERSEY CITY SKY/WX TMP DP RH WIND PRES REMARKS Newark/Liberty CLOUDY 58 53 84 E9 29.75F Teterboro CLOUDY 58 52 80 E10 29.76F Caldwell CLOUDY 59 50 72 E10 29.77F Somerville CLOUDY 58 53 84 VRB5 29.73F Linden CLOUDY 57 52 82 E13 29.75F Perth Amboy N/A 55 N/A N/A E15G22 N/A Sussex CLOUDY 57 51 80 E7 29.77F Andover N/A 56 49 77 CALM 29.75F Trenton LGT RAIN 56 54 93 E14 29.73F Millville LGT RAIN 55 55 100 E12 29.68F Atlantic City LGT RAIN 55 52 89 E13 29.73F Wrightstown LGT RAIN 55 54 94 E15G21 29.71F Toms River LGT RAIN 55 53 93 E9G16 29.75F Belmar CLOUDY 54 53 97 E16G24 29.75F $$ PAZ047>061-062-071-250800- EASTERN PENNSYLVANIA CITY SKY/WX TMP DP RH WIND PRES REMARKS Philadelphia LGT RAIN 57 53 86 E13 29.71F Allentown CLOUDY 59 50 72 E12 29.72F Scranton CLOUDY 58 49 72 VRB6 29.70F $$ CTZ002-004>006-009-010-012-RIZ004-006-007-MAZ004-011-015-250800- SOUTHERN NEW ENGLAND IN CT CITY SKY/WX TMP DP RH WIND PRES REMARKS Bradley INTL CLOUDY 53 50 89 NE5 29.83F Hartford CLOUDY 57 49 74 CALM 29.83S Danbury CLOUDY 53 50 89 NE7 29.80F Wtrbury/Oxford N/A 54 46 76 E5 29.82F Bridgeport CLOUDY 59 51 75 NE14 29.79F Meriden CLOUDY 56 50 80 E3 29.82F New Haven CLOUDY 56 50 80 NE7 29.80F Chester N/A 54 52 94 E5 29.82F Groton CLOUDY 56 50 80 NE9 29.81F Wilimantic CLOUDY 55 51 86 CALM 29.83F IN RI CITY SKY/WX TMP DP RH WIND PRES REMARKS Providence CLOUDY 54 51 90 NE8 29.84F Block Island CLOUDY 55 51 86 E10 29.82S Westerly CLOUDY 55 51 86 NE5 29.83R IN MA CITY SKY/WX TMP DP RH WIND PRES REMARKS Boston CLOUDY 54 51 90 CALM 29.87F Worcester MOCLDY 51 46 83 NE3 29.85F Westfield MOCLDY 53 50 89 N3 29.83F Provincetown CLOUDY 52 50 93 E8 29.88S Nantucket MOCLDY 53 50 89 E12 29.83S $$ ANZ330-335-338-340-345-350-353-355-250800- COASTAL MARINE OBSERVATIONS STATION/POSITION TIME SKY/WX TEMP WIND PRES VSBY WAVE AIR SEA DIR/SP/G HT/PER (UTC) (F) (DEG/KT/KT) (MB) (MI) (FT/S) NY HARB ENTRANCE 0550 56 58 80/ 19/ 21 1008.4 5/ 8 20 S FIRE ISLAND 0650 54 55 80/ 19/ 23 1006.8 6/ 8 GREAT SOUTH BAY 0630 58 64 90/ 19/ 23 N/A 23 SSW MONTAUK P 0550 55 54 1009.3 5/ 8 15 E BARNEGAT LI 0630 57 N/A 6/ 8 HUDSON CANYON 0550 53 53 90/ 10/ 10 1007.4 6/ 8 KINGS POINT 0636 57 57 CALM / 4 1008.2 EXECUTION ROCKS 0645 58 N/A CENTRAL LI SOUND 0630 56 70/ 10/ 12 N/A 1 EASTERN LI SOUND NOT AVBL ROBBINS REEF 0642 57 110/ 13/ 18 1008.5 $$ >>>>>>>>>>>>>>>>>>>>>>>>>>>> KEY <<<<<<<<<<<<<<<<<<<<<<<<<<< > < > SKY/WX - Sky Condition/Present Weather < > TMP - Temperature in Fahrenheit < > DP - Dew Point in Fahrenheit < > RH - Relative Humidity in Percent < > WIND - Direction (from) and Speed in MPH < > PRES - Mean Sea Level Pressure (inches of Hg) < > WCI - Wind Chill Index < > VSB - VISIBILITY IN MILES < > HX - HEAT INDEX < > TC - TEMPERATURE IN CELSIUS < > VRB - VARIABLE WIND DIRECTION < > < >>>>>>>>>>>>>>>>>>>>>>>>>>>> KEY <<<<<<<<<<<<<<<<<<<<<<<<<<<

USA.gov is the U.S. government's official web portal to all federal, state and local government web resources and services.